HST,Max TemperatureF,Mean TemperatureF,Min TemperatureF,Max Dew PointF,MeanDew PointF,Min DewpointF,Max Humidity, Mean Humidity, Min Humidity, Max Sea Level PressureIn, Mean Sea Level PressureIn, Min Sea Level PressureIn, Max VisibilityMiles, Mean VisibilityMiles, Min VisibilityMiles, Max Wind SpeedMPH, Mean Wind SpeedMPH, Max Gust SpeedMPH,PrecipitationIn, CloudCover, Events, WindDirDegrees
2011-11-1,39,32,26,37,29,25,100,85,70,30.36,30.30,30.21,10,10,5,21,6,25,0.00,4,,215
2011-11-2,51,46,42,48,45,41,100,94,87,29.93,29.35,29.05,10,5,2,40,28,55,0.00,8,,192
2011-11-3,42,40,39,41,35,32,93,81,66,30.06,29.68,29.12,10,9,2,51,31,63,0.00,5,,271
2011-11-4,48,44,39,45,43,37,100,92,87,30.06,29.83,29.58,10,6,1,37,28,44,0.00,8,,218
2011-11-5,41,38,35,36,33,30,93,83,70,29.73,29.66,29.60,10,10,8,34,25,41,0.00,5,,250
2011-11-6,37,34,30,36,31,28,100,89,75,29.86,29.74,29.54,10,8,1,32,20,39,0.00,5,,313
2011-11-7,39,36,33,34,29,27,87,76,65,30.26,30.16,29.96,10,10,5,23,14,32,0.00,4,,254
2011-11-8,51,44,37,50,38,34,100,84,76,30.03,29.72,29.47,10,7,2,55,30,74,0.00,8,,235
2011-11-9,42,40,37,37,34,30,93,82,61,29.96,29.82,29.75,10,10,10,31,20,40,0.00,4,,256
2011-11-10,37,32,28,36,32,28,100,95,81,30.07,29.66,29.03,10,8,2,25,7,34,0.00,7,,74
2011-11-11,39,37,35,36,33,28,100,86,70,29.63,29.37,29.01,10,10,5,33,22,46,0.00,6,,275
2011-11-12,35,30,26,30,25,18,93,75,55,30.16,30.06,29.86,10,10,4,29,16,39,0.00,7,,266
2011-11-13,41,34,26,32,29,25,100,80,61,30.23,30.20,30.17,10,10,10,24,7,24,0.00,6,,248
2011-11-14,44,40,37,45,39,34,100,90,81,30.11,29.98,29.90,10,7,2,37,22,47,0.00,8,,221
2011-11-15,39,36,35,37,35,34,100,93,87,30.22,30.17,30.08,10,9,5,36,23,41,0.00,8,,88
2011-11-16,48,45,42,48,44,41,100,95,93,29.95,29.75,29.44,10,5,1,39,21,51,0.00,8,,171
2011-11-17,48,44,41,46,39,36,100,83,71,29.89,29.62,29.38,10,9,2,46,29,55,0.00,7,,228
2011-11-18,44,38,33,45,36,30,100,83,65,30.18,29.82,29.47,10,8,0,45,20,70,0.00,5,,181
2011-11-19,39,26,12,36,31,27,93,78,65,29.59,29.49,29.44,10,10,3,56,46,70,0.00,7,,254
2011-11-20,37,35,33,34,32,28,100,84,75,29.76,29.71,29.65,10,9,5,34,20,47,0.00,6,,310
2011-11-21,35,32,30,32,29,25,100,88,65,29.95,29.89,29.81,10,10,8,12,5,,0.00,8,,16
2011-11-22,41,36,30,41,36,28,100,95,81,29.93,29.73,29.53,10,9,2,23,6,29,0.00,8,,213
2011-11-23,37,34,32,34,30,27,100,85,70,29.66,29.63,29.57,10,10,4,18,9,20,0.00,5,,262
2011-11-24,32,29,26,32,27,19,100,92,64,30.13,29.81,29.57,10,9,1,24,7,30,0.00,7,,3
2011-11-25,35,30,24,34,26,21,100,85,70,30.30,30.20,29.88,10,10,8,21,6,29,0.00,8,,213
2011-11-26,39,36,33,39,35,32,100,95,87,29.45,29.31,29.24,10,10,2,60,15,90,0.00,5,,245
2011-11-27,37,34,32,34,32,30,100,91,81,29.26,29.23,29.21,10,10,5,39,22,44,0.00,5,,245
2011-11-28,33,30,26,32,30,25,100,96,87,29.29,29.26,29.20,10,10,7,21,11,31,0.00,2,,257
2011-11-29,35,32,30,32,30,28,100,89,81,29.59,29.39,29.25,10,9,2,23,14,30,0.00,6,,346
2011-11-30,35,28,21,36,28,19,100,95,80,29.73,29.50,29.19,10,8,1,32,10,47,0.00,5,,204